When you browse on this site, cookies collect data to enhance your experience and personalize the content and advertising you see.
Visit our Privacy Policy to learn more. By continuing to use the site, you agree to this use of cookies and data.
  • In United Kingdom
  • List of Countries
  • For 7 days
  • Water Temperature
  • Satellite Maps
  • Weather Map
  • Weather Widgets
  • user-avatar
    Login

    Hourly Weather Aylesbury

    Today, 19 July, Friday

    Time Temperature Precipitation Wind Pressure Humidity
    00:00 +13°C° 0 mm 2 mps 751 mmHg 94%
    01:00 +13°C° 0 mm 2 mps 751 mmHg 94%
    02:00 +13°C° 0 mm 2 mps 751 mmHg 94%
    03:00 +13°C° 0 mm 2 mps 751 mmHg 94%
    04:00 +13°C° 0 mm 2 mps 751 mmHg 92%
    05:00 +13°C° 0 mm 3 mps 751 mmHg 91%
    06:00 +14°C° 0 mm 3 mps 751 mmHg 90%
    07:00 +14°C° 0.4 mm 3 mps 751 mmHg 90%
    08:00 +14°C° 0.4 mm 4 mps 750 mmHg 91%
    09:00 +14°C° 0.4 mm 4 mps 750 mmHg 92%
    10:00 +15°C° 2.1 mm 5 mps 750 mmHg 93%
    11:00 +15°C° 2.1 mm 6 mps 750 mmHg 93%
    12:00 +15°C° 2.1 mm 7 mps 750 mmHg 94%
    13:00 +16°C° 0.1 mm 7 mps 749 mmHg 92%
    14:00 +18°C° 0.1 mm 7 mps 749 mmHg 90%
    15:00 +20°C° 0.1 mm 7 mps 749 mmHg 88%
    16:00 +20°C° 0.4 mm 7 mps 749 mmHg 89%
    17:00 +20°C° 0.4 mm 7 mps 748 mmHg 89%
    18:00 +20°C° 0.4 mm 7 mps 748 mmHg 89%
    19:00 +19°C° 0.3 mm 6 mps 748 mmHg 91%
    20:00 +17°C° 0.3 mm 6 mps 748 mmHg 92%
    21:00 +17°C° 0.3 mm 5 mps 748 mmHg 94%
    22:00 +17°C° 0.4 mm 5 mps 748 mmHg 95%
    23:00 +16°C° 0.4 mm 5 mps 748 mmHg 95%

    Tomorrow, 20 July, Saturday

    Time Temperature Precipitation Wind Pressure Humidity
    00:00 +16°C° 0.4 mm 5 mps 748 mmHg 96%
    01:00 +16°C° 1.4 mm 5 mps 747 mmHg 96%
    02:00 +16°C° 1.4 mm 5 mps 747 mmHg 95%
    03:00 +16°C° 1.4 mm 5 mps 746 mmHg 95%
    04:00 +16°C° 0 mm 5 mps 746 mmHg 94%
    05:00 +16°C° 0 mm 5 mps 746 mmHg 94%
    06:00 +16°C° 0 mm 5 mps 746 mmHg 93%
    07:00 +17°C° 0 mm 5 mps 746 mmHg 89%
    08:00 +19°C° 0 mm 6 mps 747 mmHg 84%
    09:00 +20°C° 0 mm 6 mps 747 mmHg 80%
    10:00 +20°C° 0.8 mm 6 mps 747 mmHg 79%
    11:00 +21°C° 0.8 mm 7 mps 747 mmHg 78%
    12:00 +21°C° 0.8 mm 7 mps 748 mmHg 77%
    13:00 +21°C° 0.4 mm 7 mps 748 mmHg 73%
    14:00 +22°C° 0.4 mm 7 mps 748 mmHg 70%
    15:00 +22°C° 0.4 mm 6 mps 749 mmHg 66%
    16:00 +21°C° 0.1 mm 6 mps 749 mmHg 70%
    17:00 +20°C° 0.1 mm 5 mps 750 mmHg 74%
    18:00 +20°C° 0.1 mm 4 mps 750 mmHg 77%
    19:00 +18°C° 0 mm 4 mps 751 mmHg 81%
    20:00 +17°C° 0 mm 4 mps 752 mmHg 84%
    21:00 +14°C° 0 mm 3 mps 753 mmHg 88%
    22:00 +14°C° 0 mm 3 mps 753 mmHg 89%
    23:00 +13°C° 0 mm 3 mps 753 mmHg 90%

    Day after tomorrow, 21 July, Sunday

    Time Temperature Precipitation Wind Pressure Humidity
    00:00 +12°C° 0 mm 3 mps 754 mmHg 92%
    01:00 +13°C° 0 mm 2 mps 754 mmHg 92%
    02:00 +13°C° 0 mm 2 mps 754 mmHg 93%
    03:00 +12°C° 0 mm 2 mps 755 mmHg 94%
    04:00 +13°C° 0 mm 2 mps 755 mmHg 92%
    05:00 +14°C° 0 mm 2 mps 756 mmHg 91%
    06:00 +14°C° 0 mm 2 mps 756 mmHg 89%
    07:00 +16°C° 0 mm 2 mps 757 mmHg 84%
    08:00 +18°C° 0 mm 2 mps 757 mmHg 78%
    09:00 +19°C° 0 mm 2 mps 757 mmHg 73%
    10:00 +20°C° 0 mm 3 mps 758 mmHg 70%
    11:00 +21°C° 0 mm 3 mps 758 mmHg 66%
    12:00 +22°C° 0 mm 3 mps 758 mmHg 63%
    13:00 +22°C° 0 mm 4 mps 758 mmHg 63%
    14:00 +23°C° 0 mm 4 mps 758 mmHg 64%
    15:00 +23°C° 0 mm 4 mps 758 mmHg 64%
    16:00 +22°C° 0 mm 3 mps 758 mmHg 67%
    17:00 +22°C° 0 mm 3 mps 758 mmHg 69%
    18:00 +23°C° 0 mm 2 mps 758 mmHg 72%
    19:00 +20°C° 0 mm 2 mps 758 mmHg 77%
    20:00 +19°C° 0 mm 2 mps 759 mmHg 83%
    21:00 +17°C° 0 mm 2 mps 759 mmHg 88%
    22:00 +17°C° 0 mm 2 mps 759 mmHg 90%
    23:00 +16°C° 0 mm 2 mps 759 mmHg 92%

    22 July, Monday

    Time Temperature Precipitation Wind Pressure Humidity
    00:00 +16°C° 0 mm 3 mps 759 mmHg 94%
    01:00 +14°C° 0 mm 3 mps 759 mmHg 94%
    02:00 +14°C° 0 mm 3 mps 759 mmHg 94%
    03:00 +13°C° 0 mm 3 mps 759 mmHg 94%
    04:00 +13°C° 0 mm 3 mps 759 mmHg 91%
    05:00 +14°C° 0 mm 3 mps 759 mmHg 89%
    06:00 +14°C° 0 mm 3 mps 759 mmHg 86%
    07:00 +17°C° 0 mm 3 mps 759 mmHg 81%
    08:00 +19°C° 0 mm 3 mps 759 mmHg 76%
    09:00 +20°C° 0 mm 3 mps 759 mmHg 71%
    10:00 +22°C° 0 mm 3 mps 759 mmHg 68%
    11:00 +23°C° 0 mm 4 mps 759 mmHg 65%
    12:00 +25°C° 0 mm 4 mps 759 mmHg 62%
    13:00 +26°C° 0 mm 4 mps 759 mmHg 60%
    14:00 +26°C° 0 mm 3 mps 759 mmHg 59%
    15:00 +26°C° 0 mm 3 mps 759 mmHg 58%
    16:00 +26°C° 0 mm 3 mps 759 mmHg 62%
    17:00 +26°C° 0 mm 2 mps 759 mmHg 65%
    18:00 +25°C° 0 mm 2 mps 758 mmHg 69%
    19:00 +23°C° 0 mm 2 mps 758 mmHg 72%
    20:00 +20°C° 0 mm 2 mps 758 mmHg 75%
    21:00 +19°C° 0 mm 1 mps 758 mmHg 78%
    22:00 +19°C° 0 mm 1 mps 758 mmHg 78%
    23:00 +18°C° 0 mm 1 mps 758 mmHg 79%

    23 July, Tuesday

    Time Temperature Precipitation Wind Pressure Humidity
    00:00 +16°C° 0 mm 1 mps 758 mmHg 80%
    01:00 +18°C° 0 mm 1 mps 758 mmHg 78%
    02:00 +18°C° 0 mm 1 mps 757 mmHg 77%
    03:00 +18°C° 0 mm 1 mps 757 mmHg 75%
    04:00 +17°C° 0 mm 2 mps 757 mmHg 77%
    05:00 +18°C° 0 mm 2 mps 757 mmHg 78%
    06:00 +19°C° 0 mm 2 mps 757 mmHg 80%
    07:00 +21°C° 0 mm 3 mps 757 mmHg 75%
    08:00 +24°C° 0 mm 3 mps 756 mmHg 70%
    09:00 +26°C° 0 mm 4 mps 756 mmHg 65%
    10:00 +27°C° 0 mm 4 mps 756 mmHg 61%
    11:00 +28°C° 0 mm 4 mps 756 mmHg 57%
    12:00 +30°C° 0 mm 5 mps 756 mmHg 53%
    13:00 +30°C° 0 mm 4 mps 755 mmHg 52%
    14:00 +32°C° 0 mm 4 mps 755 mmHg 51%
    15:00 +32°C° 0 mm 4 mps 755 mmHg 50%
    16:00 +32°C° 0 mm 4 mps 754 mmHg 54%
    17:00 +30°C° 0 mm 3 mps 754 mmHg 59%
    18:00 +29°C° 0 mm 3 mps 754 mmHg 63%
    19:00 +27°C° 0.1 mm 3 mps 754 mmHg 66%
    20:00 +25°C° 0.1 mm 3 mps 754 mmHg 69%
    21:00 +23°C° 0.1 mm 2 mps 755 mmHg 72%
    22:00 +23°C° 0 mm 2 mps 754 mmHg 74%
    23:00 +21°C° 0 mm 2 mps 754 mmHg 76%

    24 July, Wednesday

    Time Temperature Precipitation Wind Pressure Humidity
    00:00 +22°C° 0 mm 1 mps 754 mmHg 78%
    01:00 +21°C° 0 mm 1 mps 754 mmHg 81%
    02:00 +21°C° 0 mm 1 mps 754 mmHg 84%
    03:00 +21°C° 0 mm 1 mps 754 mmHg 86%
    04:00 +21°C° 0 mm 1 mps 754 mmHg 85%
    05:00 +22°C° 0 mm 1 mps 754 mmHg 84%
    06:00 +23°C° 0 mm 1 mps 754 mmHg 82%
    07:00 +24°C° 0 mm 1 mps 754 mmHg 77%
    08:00 +26°C° 0 mm 1 mps 754 mmHg 72%
    09:00 +28°C° 0 mm 1 mps 754 mmHg 67%
    10:00 +29°C° 0 mm 1 mps 754 mmHg 64%
    11:00 +30°C° 0 mm 2 mps 754 mmHg 60%
    12:00 +31°C° 0 mm 2 mps 754 mmHg 57%
    13:00 +32°C° 0 mm 2 mps 754 mmHg 56%
    14:00 +32°C° 0 mm 2 mps 754 mmHg 54%
    15:00 +34°C° 0 mm 2 mps 754 mmHg 53%
    16:00 +34°C° 0 mm 2 mps 754 mmHg 56%
    17:00 +32°C° 0 mm 2 mps 754 mmHg 60%
    18:00 +32°C° 0 mm 1 mps 754 mmHg 63%
    19:00 +30°C° 0 mm 1 mps 754 mmHg 69%
    20:00 +28°C° 0 mm 1 mps 754 mmHg 74%
    21:00 +26°C° 0 mm 1 mps 754 mmHg 80%
    22:00 +25°C° 0 mm 1 mps 754 mmHg 80%
    23:00 +25°C° 0 mm 1 mps 754 mmHg 81%
    Show more